DW4604 Weather Reports


time (UTC)temp
C
wind
direction
speed
KPH
gust
KPH
rain 1hr
cm
rain 24hr
cm
rain mn
cm
humidity
%
barometer
mb
20260505062500 18 0 0.0 0.0 0.00 0.00 0.00 49 1009.7
20260505061959 18 0 0.0 0.0 0.00 0.00 0.00 50 1009.7
20260505061459 18 0 0.0 0.0 0.00 0.00 0.00 53 1009.7
20260505060959 17 0 0.0 0.0 0.00 0.00 0.00 53 1009.7
20260505060500 17 0 0.0 0.0 0.00 0.00 0.00 51 1009.8
20260505055959 17 0 0.0 0.0 0.00 0.00 0.00 54 1009.7
20260505054959 16 0 0.0 0.0 0.00 0.00 0.00 57 1009.8
20260505053959 15 0 0.0 0.0 0.00 0.00 0.00 58 1009.8
20260505053000 15 0 0.0 0.0 0.00 0.00 0.00 61 1009.8
20260505052501 14 0 0.0 0.0 0.00 0.00 0.00 62 1009.9
20260505051459 13 0 0.0 0.0 0.00 0.00 0.00 64 1009.9
20260505051000 13 0 0.0 0.0 0.00 0.00 0.00 64 1009.9
20260505050459 13 0 0.0 0.0 0.00 0.00 0.00 64 1009.9
20260505040959 10 0 0.0 0.0 0.00 0.00 0.00 73 1010.0
20260505040001 8 0 0.0 0.0 0.00 0.00 0.00 77 1010.0
20260505035500 8 0 0.0 0.0 0.00 0.00 0.00 78 1010.0
20260505034959 8 0 0.0 0.0 0.00 0.00 0.00 78 1010.0
20260505034500 8 0 0.0 0.0 0.00 0.00 0.00 78 1010.1
20260505033959 8 0 0.0 0.0 0.00 0.00 0.00 78 1010.1
20260505033459 8 0 0.0 0.0 0.00 0.00 0.00 78 1010.1
20260505032959 8 0 0.0 0.0 0.00 0.00 0.00 78 1010.0
20260505032459 8 0 0.0 0.0 0.00 0.00 0.00 78 1010.0
20260505031501 8 0 0.0 0.0 0.00 0.00 0.00 78 1010.0
20260505031000 8 0 0.0 0.0 0.00 0.00 0.00 78 1010.0
20260505030501 8 0 0.0 0.0 0.00 0.00 0.00 78 1010.1
20260505030000 8 0 0.0 0.0 0.00 0.00 0.00 77 1010.1
20260505025459 8 0 0.0 0.0 0.00 0.00 0.00 77 1010.3
20260505025000 8 0 0.0 0.0 0.00 0.00 0.00 77 1010.3
20260505024000 8 0 0.0 0.0 0.00 0.00 0.00 77 1010.3
20260505023500 8 0 0.0 0.0 0.00 0.00 0.00 78 1010.5
20260505022459 8 0 0.0 0.0 0.00 0.00 0.00 77 1010.5
20260505022001 8 0 0.0 0.0 0.00 0.00 0.00 77 1010.5
20260505021500 8 0 0.0 0.0 0.00 0.00 0.00 77 1010.5
20260505021000 8 0 0.0 0.0 0.00 0.00 0.00 77 1010.5
20260505020500 9 0 0.0 0.0 0.00 0.00 0.00 76 1010.5
20260505020001 9 0 0.0 0.0 0.00 0.00 0.00 76 1010.5
20260505015459 9 0 0.0 0.0 0.00 0.00 0.00 76 1010.6
20260505014959 9 0 0.0 0.0 0.00 0.00 0.00 76 1010.6
20260505014459 8 0 0.0 0.0 0.00 0.00 0.00 76 1010.7
20260505014000 8 0 0.0 0.0 0.00 0.00 0.00 77 1010.7
20260505013459 8 0 0.0 0.0 0.00 0.00 0.00 77 1010.7
20260505013000 9 0 0.0 0.0 0.00 0.00 0.00 77 1010.7
20260505012500 9 0 0.0 0.0 0.00 0.00 0.00 77 1010.7
20260505012000 9 0 0.0 0.0 0.00 0.00 0.00 77 1010.7
20260505011500 9 0 0.0 0.0 0.00 0.00 0.00 77 1010.6
20260505011000 9 0 0.0 0.0 0.00 0.00 0.00 77 1010.6
20260505010001 9 0 0.0 0.0 0.00 0.00 0.00 77 1010.7
20260505005002 9 0 0.0 0.0 0.00 0.00 0.00 78 1010.8
20260505004501 9 0 0.0 0.0 0.00 0.00 0.00 78 1010.8
20260505004001 9 0 0.0 0.0 0.00 0.00 0.00 78 1010.8
20260505003500 9 0 0.0 0.0 0.00 0.00 0.00 78 1010.9
20260505003000 9 0 0.0 0.0 0.00 0.00 0.00 77 1010.9
20260505002000 9 0 0.0 0.0 0.00 0.00 0.00 77 1011.1
20260505001500 9 0 0.0 0.0 0.00 0.00 0.00 78 1011.1
20260505001000 9 0 0.0 0.0 0.00 0.00 0.00 77 1011.1
20260505000500 9 0 0.0 0.0 0.00 0.00 0.00 77 1011.1
20260505000002 9 0 0.0 0.0 0.00 0.00 0.00 77 1011.1
20260504235500 9 0 0.0 0.0 0.00 0.00 0.00 77 1011.2
20260504235001 9 0 0.0 0.0 0.00 0.00 0.00 78 1011.2
20260504234501 9 0 0.0 0.0 0.00 0.00 0.00 78 1011.3
20260504233500 10 0 0.0 0.0 0.00 0.00 0.00 78 1011.3
20260504233000 10 0 0.0 0.0 0.00 0.00 0.00 77 1011.4
20260504232001 10 0 0.0 0.0 0.00 0.00 0.00 77 1011.4
20260504231500 10 0 0.0 0.0 0.00 0.00 0.00 77 1011.4
20260504231000 10 0 0.0 0.0 0.00 0.00 0.00 77 1011.5
20260504230501 10 0 0.0 0.0 0.00 0.00 0.00 76 1011.5
20260504225500 10 0 0.0 0.0 0.00 0.00 0.00 77 1011.6
20260504224500 11 0 0.0 0.0 0.00 0.00 0.00 77 1011.8
20260504224000 11 0 0.0 0.0 0.00 0.00 0.00 77 1011.8
20260504223500 11 0 0.0 0.0 0.00 0.00 0.00 77 1011.8
20260504223001 11 0 0.0 0.0 0.00 0.00 0.00 77 1011.8
20260504222501 11 0 0.0 0.0 0.00 0.00 0.00 77 1011.8
20260504222001 11 0 0.0 0.0 0.00 0.00 0.00 77 1011.8
20260504221501 11 0 0.0 0.0 0.00 0.00 0.00 77 1011.8
20260504220501 11 0 0.0 0.0 0.00 0.00 0.00 77 1011.8
20260504220002 11 0 0.0 0.0 0.00 0.00 0.00 77 1011.8
20260504215500 11 0 0.0 0.0 0.00 0.00 0.00 77 1011.8
20260504215000 11 0 0.0 0.0 0.00 0.00 0.00 76 1011.9
20260504214500 11 0 0.0 0.0 0.00 0.00 0.00 77 1011.8
20260504214001 12 0 0.0 0.0 0.00 0.00 0.00 77 1011.8
20260504213500 12 0 0.0 0.0 0.00 0.00 0.00 76 1011.8
20260504213002 12 0 0.0 0.0 0.00 0.00 0.00 76 1011.8
20260504212501 12 0 0.0 0.0 0.00 0.00 0.00 76 1011.9
20260504212000 12 0 0.0 0.0 0.00 0.00 0.00 76 1011.8
20260504211500 12 0 0.0 0.0 0.00 0.00 0.00 75 1011.8
20260504211000 12 0 0.0 0.0 0.00 0.00 0.00 75 1011.8
20260504210003 12 0 0.0 0.0 0.00 0.00 0.00 74 1011.8
20260504205501 13 0 0.0 0.0 0.00 0.00 0.00 74 1011.8
20260504205002 13 0 0.0 0.0 0.00 0.00 0.00 74 1011.8
20260504204501 13 0 0.0 0.0 0.00 0.00 0.00 75 1011.8
20260504204001 12 0 0.0 0.0 0.00 0.00 0.00 75 1011.8
20260504203501 13 0 0.0 0.0 0.00 0.00 0.00 75 1011.8
20260504203001 13 0 0.0 0.0 0.00 0.00 0.00 75 1011.8
20260504202503 13 0 0.0 0.0 0.00 0.00 0.00 74 1011.8
20260504202001 13 0 0.0 0.0 0.00 0.00 0.00 74 1011.8
20260504201501 13 0 0.0 0.0 0.00 0.00 0.00 73 1011.8
20260504201001 13 0 0.0 0.0 0.00 0.00 0.00 72 1011.7
20260504200001 14 0 0.0 0.0 0.00 0.00 0.00 71 1011.7
20260504195501 14 0 0.0 0.0 0.00 0.00 0.00 70 1011.6
20260504195001 15 0 0.0 0.0 0.00 0.00 0.00 70 1011.7
20260504194501 15 0 0.0 0.0 0.00 0.00 0.00 69 1011.6
20260504194003 15 0 0.0 0.0 0.00 0.00 0.00 69 1011.6
20260504193501 15 0 0.0 0.0 0.00 0.00 0.00 68 1011.5
20260504193001 15 0 0.0 0.0 0.00 0.00 0.00 67 1011.6
20260504192002 15 0 0.0 0.0 0.00 0.00 0.00 66 1011.6
20260504191502 16 0 0.0 0.0 0.00 0.00 0.00 65 1011.6
20260504190502 16 0 0.0 0.0 0.00 0.00 0.00 64 1011.5
20260504190002 16 0 0.0 0.0 0.00 0.00 0.00 63 1011.5
20260504185501 16 0 0.0 0.0 0.00 0.00 0.00 63 1011.5
20260504185001 16 0 0.0 0.0 0.00 0.00 0.00 62 1011.4
20260504183502 17 0 0.0 0.0 0.00 0.00 0.00 58 1011.3
20260504182503 18 0 0.0 0.0 0.00 0.00 0.00 56 1011.2
20260504182002 18 0 0.0 0.0 0.00 0.00 0.00 55 1011.2
20260504181001 20 0 0.0 0.0 0.00 0.00 0.00 51 1011.2
20260504180502 20 0 0.0 0.0 0.00 0.00 0.00 49 1011.1
20260504180002 21 0 0.0 0.0 0.00 0.00 0.00 48 1011.1
20260504175501 21 0 0.0 0.0 0.00 0.00 0.00 48 1011.1
20260504175001 21 0 0.0 0.0 0.00 0.00 0.00 47 1011.1
20260504174001 21 0 0.0 0.0 0.00 0.00 0.00 46 1011.1
20260504172002 22 0 0.0 0.0 0.00 0.00 0.00 47 1011.0
20260504171501 22 0 0.0 0.0 0.00 0.00 0.00 48 1010.9
20260504171001 22 0 0.0 0.0 0.00 0.00 0.00 45 1010.9
20260504170502 23 0 0.0 0.0 0.00 0.00 0.00 45 1010.9
20260504151002 25 0 0.0 0.0 0.00 0.00 0.00 42 1011.2
20260504150502 25 0 0.0 0.0 0.00 0.00 0.00 40 1011.2
20260504140502 25 0 0.0 0.0 0.00 0.00 0.00 43 1011.8
20260504130502 25 0 0.0 0.0 0.00 0.00 0.00 38 1012.1
20260504110504 24 0 0.0 0.0 0.00 0.00 0.00 41 1013.3
20260504100503 25 0 0.0 0.0 0.00 0.00 0.00 40 1014.1
20260504082003 22 0 0.0 0.0 0.00 0.00 0.00 42 1014.6
20260504081504 22 0 0.0 0.0 0.00 0.00 0.00 43 1014.6
20260504081003 22 0 0.0 0.0 0.00 0.00 0.00 44 1014.6
20260504080504 22 0 0.0 0.0 0.00 0.00 0.00 43 1014.6